GLO1174 SBGR-SBCT

Flight info

Callsign GLO1174
Flight time 0h 41m
Altitude 26000
Route SOVSI UZ85 RAXIT
Aircraft B38M/M-DFGHIJ4J7KLORWXY/LB1

Departure

Time 2026-05-08 01:42
Airport São Paulo/Guarulhos–Governor André Franco Montoro International Airport (SBGR)

Arrival

Time 2026-05-08 02:23
Airport Curitiba-Afonso Pena International Airport (SBCT)
Time Latitude Longitude Altitude Speed Heading
2026-05-08 01:26 -23.42867 -46.48349 2467 ft 0 kts 85°
2026-05-08 01:26 -23.42867 -46.48348 2467 ft 0 kts 84°
2026-05-08 01:36 -23.42868 -46.48368 2467 ft 4 kts 96°
2026-05-08 01:36 -23.42861 -46.48396 2467 ft 4 kts 118°
2026-05-08 01:36 -23.42845 -46.48418 2467 ft 4 kts 145°
2026-05-08 01:37 -23.42823 -46.48427 2467 ft 2 kts 179°
2026-05-08 01:37 -23.42821 -46.48427 2467 ft 0 kts 180°
2026-05-08 01:39 -23.42826 -46.48427 2467 ft 2 kts 180°
2026-05-08 01:39 -23.42870 -46.48428 2467 ft 11 kts 185°
2026-05-08 01:40 -23.42973 -46.48449 2470 ft 19 kts 184°
2026-05-08 01:40 -23.43110 -46.48423 2469 ft 21 kts 165°
2026-05-08 01:40 -23.43254 -46.48379 2475 ft 22 kts 163°
2026-05-08 01:40 -23.43393 -46.48323 2466 ft 20 kts 138°
2026-05-08 01:41 -23.43388 -46.48184 2468 ft 22 kts 73°
2026-05-08 01:41 -23.43280 -46.47787 2466 ft 91 kts 73°
2026-05-08 01:41 -23.43040 -46.46893 2467 ft 153 kts 74°
2026-05-08 01:41 -23.42678 -46.45608 2548 ft 196 kts 71°
2026-05-08 01:42 -23.42274 -46.44131 3213 ft 206 kts 72°
2026-05-08 01:42 -23.41885 -46.42649 4157 ft 207 kts 70°
2026-05-08 01:42 -23.41410 -46.41068 4730 ft 228 kts 70°
2026-05-08 01:42 -23.40893 -46.39349 5240 ft 250 kts 72°
2026-05-08 01:43 -23.40352 -46.37474 5781 ft 270 kts 75°
2026-05-08 01:43 -23.40331 -46.35372 6415 ft 286 kts 102°
2026-05-08 01:43 -23.40954 -46.33338 7298 ft 290 kts 107°
2026-05-08 01:43 -23.41620 -46.31232 8121 ft 295 kts 107°
2026-05-08 01:44 -23.42299 -46.29117 8975 ft 298 kts 108°
2026-05-08 01:44 -23.43320 -46.27141 9772 ft 304 kts 131°
2026-05-08 01:44 -23.45029 -46.25756 10487 ft 314 kts 155°
2026-05-08 01:44 -23.47191 -46.25207 10929 ft 329 kts 181°
2026-05-08 01:45 -23.49488 -46.25580 11456 ft 341 kts 192°
2026-05-08 01:45 -23.51857 -46.26108 11990 ft 352 kts 197°
2026-05-08 01:45 -23.54049 -46.27272 12667 ft 353 kts 219°
2026-05-08 01:45 -23.55711 -46.29230 13373 ft 353 kts 241°
2026-05-08 01:46 -23.56638 -46.31688 14078 ft 352 kts 259°
2026-05-08 01:46 -23.57194 -46.34271 14745 ft 357 kts 259°
2026-05-08 01:46 -23.57751 -46.36923 15438 ft 361 kts 259°
2026-05-08 01:46 -23.58301 -46.39611 16118 ft 365 kts 259°
2026-05-08 01:47 -23.58848 -46.42332 16759 ft 369 kts 259°
2026-05-08 01:47 -23.59396 -46.45081 17374 ft 373 kts 259°
2026-05-08 01:47 -23.59947 -46.47862 17978 ft 377 kts 259°
2026-05-08 01:48 -23.60960 -46.53511 19149 ft 382 kts 262°
2026-05-08 01:48 -23.61383 -46.56373 19771 ft 383 kts 262°
2026-05-08 01:48 -23.61816 -46.59247 20359 ft 384 kts 262°
2026-05-08 01:48 -23.62252 -46.62122 20942 ft 385 kts 262°
2026-05-08 01:49 -23.62824 -46.64975 21506 ft 387 kts 250°
2026-05-08 01:49 -23.64074 -46.67578 22084 ft 389 kts 239°
2026-05-08 01:49 -23.65495 -46.70104 22601 ft 392 kts 239°
2026-05-08 01:49 -23.66934 -46.72633 23158 ft 392 kts 239°
2026-05-08 01:50 -23.68385 -46.75156 23693 ft 393 kts 239°
2026-05-08 01:50 -23.69845 -46.77681 24217 ft 394 kts 239°
2026-05-08 01:50 -23.71328 -46.80214 24741 ft 396 kts 238°
2026-05-08 01:50 -23.72823 -46.82748 25195 ft 399 kts 238°
2026-05-08 01:51 -23.74323 -46.85297 25700 ft 400 kts 238°
2026-05-08 01:51 -23.75831 -46.87857 26034 ft 404 kts 238°
2026-05-08 01:51 -23.77324 -46.90396 26123 ft 393 kts 238°
2026-05-08 01:51 -23.78793 -46.92895 26117 ft 387 kts 238°
2026-05-08 01:52 -23.80244 -46.95364 26102 ft 385 kts 238°
2026-05-08 01:52 -23.81690 -46.97826 26095 ft 385 kts 238°
2026-05-08 01:52 -23.83133 -47.00284 26091 ft 385 kts 238°
2026-05-08 01:52 -23.84577 -47.02746 26096 ft 385 kts 238°
2026-05-08 01:53 -23.86022 -47.05209 26091 ft 385 kts 238°
2026-05-08 01:53 -23.87448 -47.07642 26089 ft 385 kts 238°
2026-05-08 01:53 -23.88888 -47.10101 26091 ft 385 kts 238°
2026-05-08 01:53 -23.90332 -47.12566 26092 ft 385 kts 239°
2026-05-08 01:54 -23.91778 -47.15037 26092 ft 385 kts 239°
2026-05-08 01:54 -23.93225 -47.17509 26098 ft 385 kts 239°
2026-05-08 01:54 -23.94667 -47.19975 26099 ft 385 kts 239°
2026-05-08 01:54 -23.96114 -47.22452 26094 ft 385 kts 239°
2026-05-08 01:55 -23.97553 -47.24916 26091 ft 385 kts 239°
2026-05-08 01:55 -23.98999 -47.27391 26090 ft 385 kts 239°
2026-05-08 01:55 -24.00440 -47.29861 26093 ft 385 kts 239°
2026-05-08 01:55 -24.01881 -47.32332 26093 ft 385 kts 239°
2026-05-08 01:56 -24.03318 -47.34797 26089 ft 384 kts 239°
2026-05-08 01:56 -24.04735 -47.37229 26088 ft 384 kts 239°
2026-05-08 01:56 -24.06188 -47.39723 26081 ft 384 kts 239°
2026-05-08 01:56 -24.07624 -47.42189 26083 ft 384 kts 239°
2026-05-08 01:57 -24.09061 -47.44658 26081 ft 385 kts 239°
2026-05-08 01:57 -24.10662 -47.46948 26063 ft 386 kts 225°
2026-05-08 01:57 -24.12832 -47.48698 26087 ft 390 kts 216°
2026-05-08 01:57 -24.15108 -47.50329 26074 ft 390 kts 216°
2026-05-08 01:58 -24.17393 -47.51948 26078 ft 391 kts 216°
2026-05-08 01:58 -24.19682 -47.53553 26074 ft 391 kts 216°
2026-05-08 01:58 -24.21977 -47.55153 26076 ft 391 kts 216°
2026-05-08 01:58 -24.24271 -47.56752 26074 ft 391 kts 216°
2026-05-08 01:59 -24.26570 -47.58351 26069 ft 391 kts 216°
2026-05-08 01:59 -24.28864 -47.59948 26076 ft 391 kts 216°
2026-05-08 01:59 -24.31163 -47.61549 26070 ft 391 kts 216°
2026-05-08 01:59 -24.33460 -47.63149 26073 ft 391 kts 216°
2026-05-08 02:00 -24.35758 -47.64751 26068 ft 391 kts 216°
2026-05-08 02:00 -24.38051 -47.66350 26066 ft 391 kts 216°
2026-05-08 02:00 -24.40345 -47.67950 26067 ft 391 kts 216°
2026-05-08 02:00 -24.42570 -47.69646 26050 ft 387 kts 224°
2026-05-08 02:01 -24.44535 -47.71671 26064 ft 387 kts 225°
2026-05-08 02:01 -24.46510 -47.73680 26057 ft 387 kts 225°
2026-05-08 02:01 -24.48488 -47.75694 26068 ft 387 kts 225°
2026-05-08 02:01 -24.50469 -47.77712 26054 ft 387 kts 225°
2026-05-08 02:02 -24.52445 -47.79727 26053 ft 387 kts 225°
2026-05-08 02:02 -24.54425 -47.81746 26057 ft 387 kts 225°
2026-05-08 02:02 -24.56399 -47.83760 26052 ft 387 kts 225°
2026-05-08 02:02 -24.58374 -47.85776 26061 ft 387 kts 225°
2026-05-08 02:03 -24.59682 -47.87112 26056 ft 387 kts 225°
2026-05-08 02:03 -24.62295 -47.89782 26053 ft 387 kts 225°
2026-05-08 02:03 -24.64270 -47.91801 26054 ft 387 kts 225°
2026-05-08 02:03 -24.66242 -47.93817 26052 ft 387 kts 225°
2026-05-08 02:04 -24.68216 -47.95837 26045 ft 387 kts 226°
2026-05-08 02:04 -24.70190 -47.97857 26047 ft 387 kts 225°
2026-05-08 02:04 -24.72167 -47.99882 26043 ft 388 kts 226°
2026-05-08 02:04 -24.74141 -48.01905 26046 ft 387 kts 226°
2026-05-08 02:05 -24.76110 -48.03923 26047 ft 388 kts 226°
2026-05-08 02:05 -24.78088 -48.05952 26045 ft 388 kts 226°
2026-05-08 02:05 -24.80063 -48.07977 26042 ft 388 kts 226°
2026-05-08 02:05 -24.82048 -48.10015 25675 ft 393 kts 226°
2026-05-08 02:06 -24.84046 -48.12066 25151 ft 390 kts 226°
2026-05-08 02:06 -24.85986 -48.14060 24751 ft 385 kts 226°
2026-05-08 02:06 -24.87942 -48.16070 24266 ft 382 kts 226°
2026-05-08 02:06 -24.89899 -48.18082 23759 ft 387 kts 226°
2026-05-08 02:07 -24.91874 -48.20116 23257 ft 390 kts 226°
2026-05-08 02:07 -24.93864 -48.22161 22770 ft 391 kts 226°
2026-05-08 02:07 -24.95852 -48.24208 22298 ft 390 kts 226°
2026-05-08 02:07 -24.97729 -48.26347 21721 ft 386 kts 237°
2026-05-08 02:08 -24.99038 -48.28912 21143 ft 383 kts 246°
2026-05-08 02:08 -25.00251 -48.31526 20631 ft 383 kts 246°
2026-05-08 02:08 -25.01451 -48.34148 20075 ft 383 kts 246°
2026-05-08 02:08 -25.02639 -48.36777 19508 ft 384 kts 247°
2026-05-08 02:09 -25.03829 -48.39426 18935 ft 385 kts 247°
2026-05-08 02:09 -25.05016 -48.42075 18368 ft 386 kts 247°
2026-05-08 02:09 -25.06209 -48.44737 17756 ft 388 kts 247°
2026-05-08 02:09 -25.07387 -48.47365 17275 ft 386 kts 247°
2026-05-08 02:10 -25.08572 -48.50014 16774 ft 384 kts 247°
2026-05-08 02:10 -25.09754 -48.52655 16235 ft 382 kts 247°
2026-05-08 02:10 -25.10930 -48.55285 15715 ft 382 kts 247°
2026-05-08 02:10 -25.12105 -48.57914 15166 ft 382 kts 247°
2026-05-08 02:11 -25.13276 -48.60535 14622 ft 377 kts 247°
2026-05-08 02:11 -25.14417 -48.63091 14106 ft 365 kts 247°
2026-05-08 02:11 -25.15520 -48.65567 13612 ft 354 kts 248°
2026-05-08 02:12 -25.15884 -48.66388 13427 ft 351 kts 248°
2026-05-08 02:12 -25.20754 -48.77402 11162 ft 348 kts 248°
2026-05-08 02:13 -25.21521 -48.79884 10829 ft 335 kts 266°
2026-05-08 02:13 -25.21690 -48.82399 10668 ft 321 kts 269°
2026-05-08 02:13 -25.21845 -48.84782 10543 ft 301 kts 270°
2026-05-08 02:13 -25.21983 -48.87022 10389 ft 284 kts 270°
2026-05-08 02:14 -25.22110 -48.89166 10224 ft 278 kts 270°
2026-05-08 02:14 -25.22234 -48.91298 10070 ft 278 kts 271°
2026-05-08 02:14 -25.22358 -48.93415 9917 ft 275 kts 271°
2026-05-08 02:14 -25.22481 -48.95526 9769 ft 275 kts 271°
2026-05-08 02:15 -25.22624 -48.97632 9604 ft 276 kts 265°
2026-05-08 02:15 -25.23261 -48.99647 9424 ft 280 kts 250°
2026-05-08 02:15 -25.24070 -49.01601 9286 ft 279 kts 251°
2026-05-08 02:15 -25.24877 -49.03558 9151 ft 280 kts 250°
2026-05-08 02:16 -25.25686 -49.05510 9001 ft 279 kts 250°
2026-05-08 02:16 -25.26495 -49.07454 8834 ft 278 kts 250°
2026-05-08 02:16 -25.27302 -49.09392 8693 ft 276 kts 250°
2026-05-08 02:16 -25.28106 -49.11319 8537 ft 276 kts 250°
2026-05-08 02:17 -25.28912 -49.13253 8399 ft 277 kts 250°
2026-05-08 02:17 -25.29703 -49.15152 8265 ft 272 kts 250°
2026-05-08 02:17 -25.30482 -49.17023 8116 ft 264 kts 250°
2026-05-08 02:17 -25.31237 -49.18835 7963 ft 255 kts 251°
2026-05-08 02:18 -25.31966 -49.20586 7818 ft 246 kts 251°
2026-05-08 02:18 -25.32670 -49.22278 7681 ft 238 kts 251°
2026-05-08 02:18 -25.33474 -49.23857 7471 ft 240 kts 235°
2026-05-08 02:18 -25.34659 -49.25178 7129 ft 243 kts 230°
2026-05-08 02:19 -25.35873 -49.26485 6757 ft 245 kts 230°
2026-05-08 02:19 -25.37103 -49.27803 6405 ft 245 kts 230°
2026-05-08 02:19 -25.38350 -49.29077 6047 ft 245 kts 221°
2026-05-08 02:19 -25.39929 -49.29794 5763 ft 248 kts 192°
2026-05-08 02:20 -25.41624 -49.29628 5554 ft 245 kts 165°
2026-05-08 02:20 -25.43042 -49.28674 5309 ft 233 kts 141°
2026-05-08 02:20 -25.44135 -49.27437 5057 ft 215 kts 136°
2026-05-08 02:20 -25.45096 -49.26310 4837 ft 189 kts 136°
2026-05-08 02:21 -25.45958 -49.25332 4620 ft 165 kts 135°
2026-05-08 02:21 -25.46733 -49.24459 4396 ft 157 kts 135°
2026-05-08 02:21 -25.47499 -49.23598 4190 ft 158 kts 134°
2026-05-08 02:21 -25.48276 -49.22725 3984 ft 160 kts 134°
2026-05-08 02:22 -25.49058 -49.21846 3777 ft 161 kts 133°
2026-05-08 02:22 -25.49844 -49.20962 3556 ft 161 kts 133°
2026-05-08 02:22 -25.50628 -49.20080 3357 ft 161 kts 133°
2026-05-08 02:22 -25.51397 -49.19207 3191 ft 160 kts 134°
2026-05-08 02:23 -25.52178 -49.18329 3057 ft 159 kts 134°
2026-05-08 02:23 -25.52920 -49.17495 2998 ft 132 kts 134°
2026-05-08 02:23 -25.53394 -49.16965 2998 ft 66 kts 135°
2026-05-08 02:23 -25.53560 -49.16784 2996 ft 13 kts 143°
2026-05-08 02:24 -25.53609 -49.16809 2997 ft 9 kts 258°
2026-05-08 02:24 -25.53610 -49.16879 2998 ft 10 kts 269°
2026-05-08 02:24 -25.53596 -49.16956 2998 ft 11 kts 301°
2026-05-08 02:24 -25.53542 -49.17023 2998 ft 13 kts 315°
2026-05-08 02:25 -25.53481 -49.17092 2998 ft 9 kts 307°
2026-05-08 02:25 -25.53497 -49.17154 2998 ft 10 kts 230°
2026-05-08 02:25 -25.53547 -49.17209 2998 ft 10 kts 224°
2026-05-08 02:25 -25.53565 -49.17228 2998 ft 0 kts 223°